Weather in Ixtepec

Mexico     16°33′27″N   95°05′58″W
temp.,
°C
wind,
m/s
gust,
m/s
humid.,
%
clouds,
%
prec.,
mm/h
press.,
hPa
HPBL,
m
14 august, sun
sun1401:00+24n129099 2.0 101497
04:00+24n119373 0.1 101245
07:00+23n119567 1.2 101336
10:00+28nne117873 0.0 1014423
13:00+29ese2270100 0.0 1013737
16:00+31sse116395 0.0 1010784
19:00+29s347125 0.0 1010261
22:00+26wsw1185100 0.2 101260
15 august, mon
mon1501:00+25nne1189100 0.6 101276
04:00+24n1193100 0.6 101046
07:00+24nne1194100 0.9 101140
10:00+28ese2277100 0.0 1012538
13:00+29ese3270100 0.0 1011771
16:00+31s445899 0.0 10091141
19:00+28s457342 0.0 1008677
22:00+26sse2583100 0.0 1011210
16 august, tue
tue1601:00+26s1285100 0.1 1011109
04:00+25s1191100 1.2 101073
07:00+24ene1192100 2.6 101048
10:00+28e1178100 0.0 1012480
13:00+32sse3256100 0.1 10111481
16:00+30sse4464100 0.9 1009841
19:00+28sse2474100 2.8 1010349
22:00+26sse1181100 2.0 101271
17 august, wed
wed1701:00+25nw1185100 2.4 101249
04:00+24nnw119016 0.2 101128
07:00+23nw229034 0.3 101250
10:00+29n246763 0.4 1013603
13:00+33ne235163 0.6 10121689
16:00+29se3468100 0.8 1010494
19:00+27sse128160 3.6 1010152
22:00+25nw118865 0.0 101240
18 august, thu
thu1801:00+24nnw229213 0.0 101248
04:00+23nnw25949 0.3 1011154
07:00+23n369274 0.3 1011166
10:00+26n478088 0.0 1013450
13:00+30n586265 0.0 1011968
16:00+32nne795292 0.0 10081258
19:00+28nne5107023 0.3 1009700
22:00+24nne248995 1.8 1011100